• En España
  • Lista de países
  • Para 7 días
  • Temperatura del agua
  • Mapa Satelital
  • El tiempo en el mapa
  • Informadores
  • user-avatar
    Iniciar sesión

    Tiempo cada hora Durres

    Hoy, 21 Agosto, Lunes

    Tiempo Temperatura Precipitaciones Viento Presión Humedad
    00:00 +25°C° 1,7 mm 3 mps 758 mmHg 73%
    01:00 +25°C° 0 mm 3 mps 757 mmHg 75%
    02:00 +24°C° 0,7 mm 3 mps 757 mmHg 78%
    03:00 +24°C° 0,7 mm 3 mps 757 mmHg 81%
    04:00 +24°C° 0,7 mm 3 mps 757 mmHg 84%
    05:00 +25°C° 0 mm 3 mps 757 mmHg 78%
    06:00 +26°C° 0 mm 3 mps 757 mmHg 72%
    07:00 +27°C° 0 mm 2 mps 758 mmHg 63%
    08:00 +29°C° 0 mm 3 mps 758 mmHg 55%
    09:00 +31°C° 0 mm 3 mps 758 mmHg 48%
    10:00 +33°C° 0 mm 4 mps 758 mmHg 40%
    11:00 +34°C° 0 mm 5 mps 757 mmHg 38%
    12:00 +35°C° 0 mm 5 mps 757 mmHg 35%
    13:00 +35°C° 0 mm 6 mps 757 mmHg 33%
    14:00 +35°C° 0 mm 6 mps 757 mmHg 34%
    15:00 +34°C° 0 mm 7 mps 757 mmHg 35%
    16:00 +33°C° 0 mm 8 mps 757 mmHg 36%
    17:00 +30°C° 0 mm 7 mps 757 mmHg 43%
    18:00 +28°C° 0 mm 7 mps 757 mmHg 49%
    19:00 +26°C° 0 mm 7 mps 758 mmHg 56%
    20:00 +24°C° 0 mm 6 mps 758 mmHg 58%
    21:00 +23°C° 0 mm 6 mps 758 mmHg 61%
    22:00 +23°C° 0 mm 6 mps 759 mmHg 64%
    23:00 +22°C° 0 mm 6 mps 759 mmHg 64%

    Mañana, 22 Agosto, Martes

    Tiempo Temperatura Precipitaciones Viento Presión Humedad
    00:00 +22°C° 0 mm 6 mps 759 mmHg 65%
    01:00 +21°C° 0 mm 6 mps 759 mmHg 65%
    02:00 +21°C° 0 mm 6 mps 759 mmHg 64%
    03:00 +20°C° 0 mm 6 mps 759 mmHg 63%
    04:00 +20°C° 0 mm 6 mps 759 mmHg 62%
    05:00 +21°C° 0 mm 6 mps 759 mmHg 57%
    06:00 +22°C° 0 mm 6 mps 759 mmHg 51%
    07:00 +23°C° 0 mm 6 mps 760 mmHg 45%
    08:00 +26°C° 0 mm 6 mps 760 mmHg 40%
    09:00 +28°C° 0 mm 6 mps 760 mmHg 34%
    10:00 +30°C° 0 mm 5 mps 760 mmHg 28%
    11:00 +32°C° 0 mm 6 mps 760 mmHg 26%
    12:00 +33°C° 0 mm 6 mps 759 mmHg 24%
    13:00 +34°C° 0 mm 6 mps 759 mmHg 21%
    14:00 +34°C° 0 mm 7 mps 759 mmHg 21%
    15:00 +34°C° 0 mm 8 mps 759 mmHg 22%
    16:00 +34°C° 0 mm 8 mps 759 mmHg 22%
    17:00 +31°C° 0 mm 8 mps 759 mmHg 30%
    18:00 +27°C° 0 mm 7 mps 759 mmHg 39%
    19:00 +23°C° 0 mm 7 mps 759 mmHg 47%
    20:00 +23°C° 0 mm 6 mps 760 mmHg 47%
    21:00 +22°C° 0 mm 5 mps 760 mmHg 46%
    22:00 +21°C° 0 mm 5 mps 760 mmHg 45%
    23:00 +21°C° 0 mm 4 mps 760 mmHg 44%

    Pasado mañana, 23 Agosto, Miércoles

    Tiempo Temperatura Precipitaciones Viento Presión Humedad
    00:00 +21°C° 0 mm 4 mps 760 mmHg 43%
    01:00 +20°C° 0 mm 4 mps 760 mmHg 42%
    02:00 +20°C° 0 mm 3 mps 760 mmHg 42%
    03:00 +20°C° 0 mm 3 mps 760 mmHg 42%
    04:00 +19°C° 0 mm 3 mps 760 mmHg 42%
    05:00 +21°C° 0 mm 3 mps 760 mmHg 40%
    06:00 +24°C° 0 mm 3 mps 760 mmHg 38%
    07:00 +25°C° 0 mm 2 mps 761 mmHg 36%
    08:00 +28°C° 0 mm 2 mps 761 mmHg 31%
    09:00 +30°C° 0 mm 2 mps 761 mmHg 26%
    10:00 +34°C° 0 mm 2 mps 761 mmHg 22%
    11:00 +34°C° 0 mm 3 mps 761 mmHg 21%
    12:00 +35°C° 0 mm 4 mps 761 mmHg 19%
    13:00 +35°C° 0 mm 5 mps 761 mmHg 18%
    14:00 +35°C° 0 mm 5 mps 760 mmHg 20%
    15:00 +34°C° 0 mm 5 mps 760 mmHg 22%
    16:00 +33°C° 0 mm 6 mps 760 mmHg 24%
    17:00 +30°C° 0 mm 5 mps 760 mmHg 33%
    18:00 +27°C° 0 mm 4 mps 761 mmHg 42%
    19:00 +24°C° 0 mm 3 mps 761 mmHg 51%
    20:00 +24°C° 0 mm 3 mps 761 mmHg 49%
    21:00 +22°C° 0 mm 3 mps 762 mmHg 48%
    22:00 +23°C° 0 mm 2 mps 762 mmHg 46%
    23:00 +23°C° 0 mm 2 mps 762 mmHg 44%

    24 Agosto, Jueves

    Tiempo Temperatura Precipitaciones Viento Presión Humedad
    00:00 +21°C° 0 mm 2 mps 762 mmHg 42%
    01:00 +21°C° 0 mm 2 mps 762 mmHg 39%
    02:00 +21°C° 0 mm 2 mps 762 mmHg 39%
    03:00 +21°C° 0 mm 2 mps 762 mmHg 39%
    04:00 +20°C° 0 mm 2 mps 762 mmHg 38%
    05:00 +23°C° 0 mm 2 mps 762 mmHg 37%
    06:00 +25°C° 0 mm 2 mps 762 mmHg 35%
    07:00 +26°C° 0 mm 3 mps 762 mmHg 33%
    08:00 +29°C° 0 mm 2 mps 762 mmHg 29%
    09:00 +31°C° 0 mm 2 mps 762 mmHg 24%
    10:00 +35°C° 0 mm 2 mps 762 mmHg 20%
    11:00 +36°C° 0 mm 3 mps 762 mmHg 19%
    12:00 +36°C° 0 mm 4 mps 762 mmHg 18%
    13:00 +37°C° 0 mm 4 mps 762 mmHg 17%
    14:00 +36°C° 0 mm 5 mps 762 mmHg 18%
    15:00 +36°C° 0 mm 5 mps 761 mmHg 19%
    16:00 +35°C° 0 mm 6 mps 761 mmHg 20%
    17:00 +32°C° 0 mm 5 mps 761 mmHg 27%
    18:00 +28°C° 0 mm 5 mps 762 mmHg 34%
    19:00 +25°C° 0 mm 4 mps 762 mmHg 41%
    20:00 +25°C° 0 mm 3 mps 762 mmHg 39%
    21:00 +25°C° 0 mm 3 mps 762 mmHg 37%
    22:00 +25°C° 0 mm 2 mps 763 mmHg 35%
    23:00 +24°C° 0 mm 2 mps 762 mmHg 34%

    25 Agosto, Viernes

    Tiempo Temperatura Precipitaciones Viento Presión Humedad
    00:00 +24°C° 0 mm 2 mps 762 mmHg 32%
    01:00 +24°C° 0 mm 2 mps 762 mmHg 31%
    02:00 +24°C° 0 mm 2 mps 762 mmHg 30%
    03:00 +23°C° 0 mm 2 mps 762 mmHg 30%
    04:00 +23°C° 0 mm 2 mps 762 mmHg 30%
    05:00 +25°C° 0 mm 2 mps 762 mmHg 29%
    06:00 +26°C° 0 mm 2 mps 762 mmHg 28%
    07:00 +28°C° 0 mm 2 mps 762 mmHg 27%
    08:00 +31°C° 0 mm 2 mps 762 mmHg 23%
    09:00 +34°C° 0 mm 2 mps 762 mmHg 19%
    10:00 +37°C° 0 mm 2 mps 762 mmHg 16%
    11:00 +38°C° 0 mm 2 mps 762 mmHg 16%
    12:00 +38°C° 0 mm 3 mps 762 mmHg 15%
    13:00 +40°C° 0 mm 4 mps 761 mmHg 15%
    14:00 +38°C° 0 mm 4 mps 761 mmHg 16%
    15:00 +39°C° 0 mm 5 mps 761 mmHg 17%
    16:00 +37°C° 0 mm 5 mps 761 mmHg 19%
    17:00 +34°C° 0 mm 4 mps 761 mmHg 25%
    18:00 +30°C° 0 mm 4 mps 761 mmHg 32%
    19:00 +27°C° 0 mm 3 mps 761 mmHg 39%
    20:00 +27°C° 0 mm 3 mps 761 mmHg 37%
    21:00 +26°C° 0 mm 2 mps 761 mmHg 35%
    22:00 +26°C° 0 mm 2 mps 762 mmHg 33%
    23:00 +26°C° 0 mm 2 mps 761 mmHg 30%

    26 Agosto, Sábado

    Tiempo Temperatura Precipitaciones Viento Presión Humedad
    00:00 +25°C° 0 mm 1 mps 761 mmHg 28%
    01:00 +25°C° 0 mm 1 mps 761 mmHg 25%
    02:00 +25°C° 0 mm 1 mps 761 mmHg 25%
    03:00 +24°C° 0 mm 1 mps 761 mmHg 25%
    04:00 +24°C° 0 mm 2 mps 761 mmHg 25%
    05:00 +25°C° 0 mm 2 mps 761 mmHg 25%
    06:00 +27°C° 0 mm 2 mps 761 mmHg 25%
    07:00 +29°C° 0 mm 2 mps 761 mmHg 25%
    08:00 +31°C° 0 mm 2 mps 761 mmHg 22%
    09:00 +34°C° 0 mm 1 mps 761 mmHg 18%
    10:00 +37°C° 0 mm 1 mps 761 mmHg 15%
    11:00 +39°C° 0 mm 2 mps 761 mmHg 14%
    12:00 +39°C° 0 mm 3 mps 761 mmHg 14%
    13:00 +40°C° 0 mm 3 mps 760 mmHg 13%
    14:00 +40°C° 0 mm 4 mps 760 mmHg 15%
    15:00 +38°C° 0 mm 4 mps 760 mmHg 16%
    16:00 +38°C° 0 mm 4 mps 760 mmHg 17%
    17:00 +34°C° 0 mm 3 mps 760 mmHg 23%
    18:00 +30°C° 0 mm 3 mps 760 mmHg 29%
    19:00 +27°C° 0 mm 2 mps 761 mmHg 35%
    20:00 +27°C° 0 mm 2 mps 761 mmHg 34%
    21:00 +27°C° 0 mm 2 mps 761 mmHg 32%
    22:00 +27°C° 0 mm 1 mps 761 mmHg 31%
    23:00 +26°C° 0 mm 1 mps 761 mmHg 31%
    Mostrar más